Time,TemperatureF,DewpointF,PressureIn,WindDirection,WindDirectionDegrees,WindSpeedMPH,WindSpeedGustMPH,Humidity,HourlyPrecipIn,Conditions,Clouds,dailyrainin,SoftwareType,DateUTC
2013-12-10 00:02:00,37.3,14.6,24.44,NNW,347,4.0,6.0,39,0.00,,---,0.00,VWS V14.01,2013-12-10 06:02:00,
2013-12-10 00:07:00,37.1,14.4,24.44,North,352,5.0,6.0,39,0.00,,---,0.00,VWS V14.01,2013-12-10 06:07:00,
2013-12-10 00:12:00,37.0,13.8,24.44,NNW,342,5.0,5.0,38,0.00,,---,0.00,VWS V14.01,2013-12-10 06:12:00,
2013-12-10 00:17:00,36.9,13.7,24.44,NW,306,4.0,5.0,38,0.00,,---,0.00,VWS V14.01,2013-12-10 06:17:00,
2013-12-10 00:22:00,37.1,13.2,24.44,NW,322,5.0,6.0,37,0.00,,---,0.00,VWS V14.01,2013-12-10 06:22:00,
2013-12-10 00:27:00,37.1,13.2,24.44,NNW,334,8.0,9.0,37,0.00,,---,0.00,VWS V14.01,2013-12-10 06:27:00,
2013-12-10 00:32:00,37.1,12.6,24.44,NW,322,5.0,8.0,36,0.00,,---,0.00,VWS V14.01,2013-12-10 06:32:00,
2013-12-10 00:37:00,37.3,11.5,24.44,NNW,327,5.0,7.0,34,0.00,,---,0.00,VWS V14.01,2013-12-10 06:37:00,
2013-12-10 00:42:00,37.2,12.1,24.45,North,359,2.0,5.0,35,0.00,,---,0.00,VWS V14.01,2013-12-10 06:42:00,
2013-12-10 00:47:00,36.9,13.1,24.45,North,359,1.0,3.0,37,0.00,,---,0.00,VWS V14.01,2013-12-10 06:47:00,
2013-12-10 00:52:00,36.5,12.7,24.44,North,356,3.0,3.0,37,0.00,,---,0.00,VWS V14.01,2013-12-10 06:52:00,
2013-12-10 00:57:00,36.4,12.6,24.45,North,358,6.0,7.0,37,0.00,,---,0.00,VWS V14.01,2013-12-10 06:57:00,
2013-12-10 01:02:00,36.5,12.1,24.45,NW,319,7.0,7.0,36,0.00,,---,0.00,VWS V14.01,2013-12-10 07:02:00,
2013-12-10 01:07:00,36.3,13.7,24.45,NW,323,9.0,9.0,39,0.00,,---,0.00,VWS V14.01,2013-12-10 07:07:00,
2013-12-10 01:13:00,36.0,14.0,24.44,North,358,5.0,8.0,40,0.00,,---,0.00,VWS V14.01,2013-12-10 07:13:00,
2013-12-10 01:18:00,35.3,15.1,24.45,NNW,336,6.0,8.0,43,0.00,,---,0.00,VWS V14.01,2013-12-10 07:18:00,
2013-12-10 01:23:00,35.1,14.3,24.45,NNW,330,4.0,7.0,42,0.00,,---,0.00,VWS V14.01,2013-12-10 07:23:00,
2013-12-10 01:28:00,35.5,13.0,24.45,NNW,334,5.0,7.0,39,0.00,,---,0.00,VWS V14.01,2013-12-10 07:28:00,
2013-12-10 01:33:00,35.3,14.0,24.45,NNW,337,5.0,6.0,41,0.00,,---,0.00,VWS V14.01,2013-12-10 07:33:00,
2013-12-10 01:38:00,35.3,12.8,24.45,North,358,8.0,9.0,39,0.00,,---,0.00,VWS V14.01,2013-12-10 07:38:00,
2013-12-10 01:43:00,35.6,13.1,24.45,NNW,332,8.0,8.0,39,0.00,,---,0.00,VWS V14.01,2013-12-10 07:43:00,
2013-12-10 01:48:00,35.9,12.2,24.45,NNW,331,6.0,6.0,37,0.00,,---,0.00,VWS V14.01,2013-12-10 07:48:00,
2013-12-10 01:53:00,36.3,11.9,24.44,NNW,329,2.0,3.0,36,0.00,,---,0.00,VWS V14.01,2013-12-10 07:53:00,
2013-12-10 01:58:00,36.3,12.5,24.44,NNW,333,1.0,3.0,37,0.00,,---,0.00,VWS V14.01,2013-12-10 07:58:00,
2013-12-10 02:03:00,35.8,13.9,24.45,NE,41,0.0,2.0,40,0.00,,---,0.00,VWS V14.01,2013-12-10 08:03:00,
2013-12-10 02:08:00,35.0,13.1,24.45,NE,41,0.0,1.0,40,0.00,,---,0.00,VWS V14.01,2013-12-10 08:08:00,
2013-12-10 02:13:00,34.4,13.7,24.46,NE,46,3.0,4.0,42,0.00,,---,0.00,VWS V14.01,2013-12-10 08:13:00,
2013-12-10 02:18:00,33.7,15.6,24.45,NE,37,5.0,6.0,47,0.00,,---,0.00,VWS V14.01,2013-12-10 08:18:00,
2013-12-10 02:23:00,31.6,18.5,24.45,NE,40,9.0,12.0,58,0.00,,---,0.00,VWS V14.01,2013-12-10 08:23:00,
2013-12-10 02:28:00,29.9,18.1,24.45,North,358,6.0,6.0,61,0.00,,---,0.00,VWS V14.01,2013-12-10 08:28:00,
2013-12-10 02:33:00,30.0,18.6,24.46,NE,42,6.0,8.0,62,0.00,,---,0.00,VWS V14.01,2013-12-10 08:33:00,
2013-12-10 02:38:00,29.4,19.5,24.45,NNE,26,9.0,10.0,66,0.00,,---,0.00,VWS V14.01,2013-12-10 08:38:00,
2013-12-10 02:43:00,28.8,19.2,24.45,NNW,333,5.0,6.0,67,0.00,,---,0.00,VWS V14.01,2013-12-10 08:43:00,
2013-12-10 02:48:00,29.6,19.3,24.45,NNE,22,5.0,9.0,65,0.00,,---,0.00,VWS V14.01,2013-12-10 08:48:00,
2013-12-10 02:53:00,29.4,19.1,24.45,NE,45,7.0,7.0,65,0.00,,---,0.00,VWS V14.01,2013-12-10 08:53:00,
2013-12-10 02:58:00,28.8,19.6,24.45,NNE,33,7.0,7.0,68,0.00,,---,0.00,VWS V14.01,2013-12-10 08:58:00,
2013-12-10 03:03:00,28.9,19.3,24.46,NE,34,6.0,9.0,67,0.00,,---,0.00,VWS V14.01,2013-12-10 09:03:00,
2013-12-10 03:04:00,29.0,19.4,24.46,NE,38,6.0,8.0,67,0.00,,---,0.00,VWS V14.01,2013-12-10 09:04:00,
2013-12-10 03:09:00,29.4,19.5,24.46,NNE,15,4.0,5.0,66,0.00,,---,0.00,VWS V14.01,2013-12-10 09:09:00,
2013-12-10 03:14:00,29.9,19.2,24.46,NNE,30,7.0,7.0,64,0.00,,---,0.00,VWS V14.01,2013-12-10 09:14:00,
2013-12-10 03:19:00,29.9,19.2,24.46,NE,42,6.0,7.0,64,0.00,,---,0.00,VWS V14.01,2013-12-10 09:19:00,
2013-12-10 03:24:00,29.6,19.3,24.47,NNE,24,6.0,8.0,65,0.00,,---,0.00,VWS V14.01,2013-12-10 09:24:00,
2013-12-10 03:29:00,28.9,19.3,24.47,NNE,27,7.0,8.0,67,0.00,,---,0.00,VWS V14.01,2013-12-10 09:29:00,
2013-12-10 03:34:00,28.2,19.7,24.47,NNE,31,8.0,8.0,70,0.00,,---,0.00,VWS V14.01,2013-12-10 09:34:00,
2013-12-10 03:39:00,27.6,19.8,24.47,NE,46,7.0,9.0,72,0.00,,---,0.00,VWS V14.01,2013-12-10 09:39:00,
2013-12-10 03:44:00,26.8,19.6,24.47,NE,38,5.0,6.0,74,0.00,,---,0.00,VWS V14.01,2013-12-10 09:44:00,
2013-12-10 03:49:00,27.0,19.8,24.47,NE,45,6.0,8.0,74,0.00,,---,0.00,VWS V14.01,2013-12-10 09:49:00,
2013-12-10 03:54:00,27.2,20.0,24.47,NE,44,6.0,9.0,74,0.00,,---,0.00,VWS V14.01,2013-12-10 09:54:00,
2013-12-10 03:59:00,27.0,19.8,24.47,NNE,30,6.0,7.0,74,0.00,,---,0.00,VWS V14.01,2013-12-10 09:59:00,
2013-12-10 04:04:00,27.5,20.0,24.47,NNE,32,3.0,6.0,73,0.00,,---,0.00,VWS V14.01,2013-12-10 10:04:00,
2013-12-10 04:09:00,27.6,20.1,24.48,NE,40,3.0,3.0,73,0.00,,---,0.00,VWS V14.01,2013-12-10 10:09:00,
2013-12-10 04:14:00,27.9,20.1,24.48,NNE,26,4.0,6.0,72,0.00,,---,0.00,VWS V14.01,2013-12-10 10:14:00,
2013-12-10 04:19:00,27.9,19.7,24.48,NNE,33,6.0,7.0,71,0.00,,---,0.00,VWS V14.01,2013-12-10 10:19:00,
2013-12-10 04:24:00,27.5,20.0,24.47,North,360,4.0,5.0,73,0.00,,---,0.00,VWS V14.01,2013-12-10 10:24:00,
2013-12-10 04:29:00,27.8,20.0,24.48,North,353,3.0,4.0,72,0.00,,---,0.00,VWS V14.01,2013-12-10 10:29:00,
2013-12-10 04:34:00,27.8,19.6,24.48,North,359,5.0,6.0,71,0.00,,---,0.00,VWS V14.01,2013-12-10 10:34:00,
2013-12-10 04:39:00,28.7,19.8,24.48,NNW,339,4.0,5.0,69,0.00,,---,0.00,VWS V14.01,2013-12-10 10:39:00,
2013-12-10 04:44:00,29.0,19.8,24.48,NNE,20,5.0,5.0,68,0.00,,---,0.00,VWS V14.01,2013-12-10 10:44:00,
2013-12-10 04:49:00,28.5,19.6,24.48,NNW,343,5.0,6.0,69,0.00,,---,0.00,VWS V14.01,2013-12-10 10:49:00,
2013-12-10 04:54:00,28.2,19.7,24.48,North,10,4.0,4.0,70,0.00,,---,0.00,VWS V14.01,2013-12-10 10:54:00,
2013-12-10 04:59:00,27.8,19.6,24.48,NE,50,6.0,6.0,71,0.00,,---,0.00,VWS V14.01,2013-12-10 10:59:00,
2013-12-10 05:04:00,27.4,19.6,24.48,NE,38,6.0,6.0,72,0.00,,---,0.00,VWS V14.01,2013-12-10 11:04:00,
2013-12-10 05:09:00,27.2,19.1,24.49,NE,53,5.0,5.0,71,0.00,,---,0.00,VWS V14.01,2013-12-10 11:09:00,
2013-12-10 05:14:00,27.0,19.2,24.49,NNE,28,3.0,3.0,72,0.00,,---,0.00,VWS V14.01,2013-12-10 11:14:00,
2013-12-10 05:19:00,27.0,18.9,24.49,North,360,6.0,6.0,71,0.00,,---,0.00,VWS V14.01,2013-12-10 11:19:00,
2013-12-10 05:24:00,27.3,19.1,24.49,NE,38,3.0,6.0,71,0.00,,---,0.00,VWS V14.01,2013-12-10 11:24:00,
2013-12-10 05:29:00,27.4,19.2,24.49,NE,38,7.0,7.0,71,0.00,,---,0.00,VWS V14.01,2013-12-10 11:29:00,
2013-12-10 05:34:00,27.8,19.0,24.49,North,358,3.0,5.0,69,0.00,,---,0.00,VWS V14.01,2013-12-10 11:34:00,
2013-12-10 05:39:00,27.8,19.0,24.50,NE,54,1.0,3.0,69,0.00,,---,0.00,VWS V14.01,2013-12-10 11:39:00,
2013-12-10 05:44:00,27.4,18.6,24.49,ENE,61,4.0,6.0,69,0.00,,---,0.00,VWS V14.01,2013-12-10 11:44:00,
2013-12-10 05:49:00,27.0,18.5,24.49,NE,52,5.0,6.0,70,0.00,,---,0.00,VWS V14.01,2013-12-10 11:49:00,
2013-12-10 05:54:00,27.0,18.5,24.49,NE,48,6.0,7.0,70,0.00,,---,0.00,VWS V14.01,2013-12-10 11:54:00,
2013-12-10 05:59:00,27.2,18.4,24.50,NE,52,4.0,5.0,69,0.00,,---,0.00,VWS V14.01,2013-12-10 11:59:00,
2013-12-10 06:04:00,27.5,18.0,24.50,NE,53,3.0,3.0,67,0.00,,---,0.00,VWS V14.01,2013-12-10 12:04:00,
2013-12-10 06:09:00,27.9,18.4,24.50,NE,53,2.0,2.0,67,0.00,,---,0.00,VWS V14.01,2013-12-10 12:09:00,
2013-12-10 06:14:00,28.7,18.4,24.50,NE,53,2.0,2.0,65,0.00,,---,0.00,VWS V14.01,2013-12-10 12:14:00,
2013-12-10 06:19:00,29.9,18.1,24.50,NE,53,3.0,4.0,61,0.00,,---,0.00,VWS V14.01,2013-12-10 12:19:00,
2013-12-10 06:24:00,29.9,18.1,24.51,NE,52,4.0,4.0,61,0.00,,---,0.00,VWS V14.01,2013-12-10 12:24:00,
2013-12-10 06:29:00,29.1,17.7,24.50,NE,45,3.0,4.0,62,0.00,,---,0.00,VWS V14.01,2013-12-10 12:29:00,
2013-12-10 06:34:00,28.5,17.5,24.50,NNE,28,4.0,5.0,63,0.00,,---,0.00,VWS V14.01,2013-12-10 12:34:00,
2013-12-10 06:39:00,28.3,17.7,24.51,NNE,27,1.0,2.0,64,0.00,,---,0.00,VWS V14.01,2013-12-10 12:39:00,
2013-12-10 06:44:00,28.8,18.5,24.51,NNE,27,0.0,1.0,65,0.00,,---,0.00,VWS V14.01,2013-12-10 12:44:00,
2013-12-10 06:49:00,29.0,18.4,24.51,NE,36,0.0,2.0,64,0.00,,---,0.00,VWS V14.01,2013-12-10 12:49:00,
2013-12-10 06:54:00,28.9,17.9,24.51,NE,36,0.0,1.0,63,0.00,,---,0.00,VWS V14.01,2013-12-10 12:54:00,
2013-12-10 06:59:00,28.8,17.8,24.51,NE,36,0.0,0.0,63,0.00,,---,0.00,VWS V14.01,2013-12-10 12:59:00,
2013-12-10 07:04:00,28.8,17.8,24.52,NE,36,3.0,4.0,63,0.00,,---,0.00,VWS V14.01,2013-12-10 13:04:00,
2013-12-10 07:09:00,28.6,17.2,24.52,NE,36,0.0,2.0,62,0.00,,---,0.00,VWS V14.01,2013-12-10 13:09:00,
2013-12-10 07:14:00,28.4,17.1,24.52,NE,36,0.0,0.0,62,0.00,,---,0.00,VWS V14.01,2013-12-10 13:14:00,
2013-12-10 07:19:00,28.4,15.5,24.53,NE,36,0.0,0.0,58,0.00,,---,0.00,VWS V14.01,2013-12-10 13:19:00,
2013-12-10 07:24:00,28.6,15.7,24.53,NE,50,5.0,5.0,58,0.00,,---,0.00,VWS V14.01,2013-12-10 13:24:00,
2013-12-10 07:29:00,28.7,15.0,24.53,NE,52,1.0,2.0,56,0.00,,---,0.00,VWS V14.01,2013-12-10 13:29:00,
2013-12-10 07:34:00,28.9,14.8,24.53,NE,40,2.0,3.0,55,0.00,,---,0.00,VWS V14.01,2013-12-10 13:34:00,
2013-12-10 07:39:00,29.0,14.9,24.54,NE,41,3.0,4.0,55,0.00,,---,0.00,VWS V14.01,2013-12-10 13:39:00,
2013-12-10 07:44:00,28.9,15.2,24.54,NE,42,3.0,3.0,56,0.00,,---,0.00,VWS V14.01,2013-12-10 13:44:00,
2013-12-10 07:49:00,28.8,15.1,24.54,NE,40,2.0,3.0,56,0.00,,---,0.00,VWS V14.01,2013-12-10 13:49:00,
2013-12-10 07:54:00,28.9,15.6,24.54,NE,38,1.0,2.0,57,0.00,,---,0.00,VWS V14.01,2013-12-10 13:54:00,
2013-12-10 07:59:00,29.0,15.3,24.55,NE,36,3.0,3.0,56,0.00,,---,0.00,VWS V14.01,2013-12-10 13:59:00,
2013-12-10 08:04:00,29.2,15.1,24.55,NNE,12,3.0,4.0,55,0.00,,---,0.00,VWS V14.01,2013-12-10 14:04:00,
2013-12-10 08:09:00,29.3,16.0,24.55,NW,311,6.0,6.0,57,0.00,,---,0.00,VWS V14.01,2013-12-10 14:09:00,
2013-12-10 08:14:00,29.2,16.7,24.55,WNW,302,6.0,7.0,59,0.00,,---,0.00,VWS V14.01,2013-12-10 14:14:00,
2013-12-10 08:19:00,29.0,17.2,24.55,WNW,301,7.0,7.0,61,0.00,,---,0.00,VWS V14.01,2013-12-10 14:19:00,
2013-12-10 08:24:00,29.7,17.1,24.55,WNW,284,5.0,6.0,59,0.00,,---,0.00,VWS V14.01,2013-12-10 14:24:00,
2013-12-10 08:29:00,30.9,17.5,24.55,West,280,5.0,6.0,57,0.00,,---,0.00,VWS V14.01,2013-12-10 14:29:00,
2013-12-10 08:34:00,32.3,16.7,24.56,WNW,289,5.0,6.0,52,0.00,,---,0.00,VWS V14.01,2013-12-10 14:34:00,
2013-12-10 08:39:00,33.3,16.2,24.56,WNW,282,4.0,4.0,49,0.00,,---,0.00,VWS V14.01,2013-12-10 14:39:00,
2013-12-10 08:44:00,34.2,13.5,24.56,WNW,283,2.0,3.0,42,0.00,,---,0.00,VWS V14.01,2013-12-10 14:44:00,
2013-12-10 08:50:00,35.3,10.4,24.56,WNW,283,2.0,3.0,35,0.00,,---,0.00,VWS V14.01,2013-12-10 14:50:00,
2013-12-10 08:55:00,36.4,9.4,24.57,WNW,283,0.0,0.0,32,0.00,,---,0.00,VWS V14.01,2013-12-10 14:55:00,
2013-12-10 09:00:00,37.6,9.0,24.56,WNW,283,2.0,2.0,30,0.00,,---,0.00,VWS V14.01,2013-12-10 15:00:00,
2013-12-10 09:05:00,39.0,7.0,24.57,SSW,203,3.0,3.0,26,0.00,,---,0.00,VWS V14.01,2013-12-10 15:05:00,
2013-12-10 09:10:00,39.8,8.6,24.57,SSW,194,3.0,3.0,27,0.00,,---,0.00,VWS V14.01,2013-12-10 15:10:00,
2013-12-10 09:15:00,40.3,9.0,24.57,SSW,195,2.0,3.0,27,0.00,,---,0.00,VWS V14.01,2013-12-10 15:15:00,
2013-12-10 09:20:00,41.1,9.7,24.57,SSE,152,1.0,3.0,27,0.00,,---,0.00,VWS V14.01,2013-12-10 15:20:00,
2013-12-10 09:25:00,41.7,11.8,24.57,SE,136,3.0,4.0,29,0.00,,---,0.00,VWS V14.01,2013-12-10 15:25:00,
2013-12-10 09:30:00,41.8,10.3,24.57,SSE,148,1.0,4.0,27,0.00,,---,0.00,VWS V14.01,2013-12-10 15:30:00,
2013-12-10 09:35:00,41.8,11.9,24.57,South,190,5.0,5.0,29,0.00,,---,0.00,VWS V14.01,2013-12-10 15:35:00,
2013-12-10 09:40:00,41.8,11.1,24.58,SE,142,5.0,5.0,28,0.00,,---,0.00,VWS V14.01,2013-12-10 15:40:00,
2013-12-10 09:45:00,41.7,11.8,24.58,SSW,195,4.0,5.0,29,0.00,,---,0.00,VWS V14.01,2013-12-10 15:45:00,
2013-12-10 09:50:00,41.6,9.3,24.58,South,181,2.0,6.0,26,0.00,,---,0.00,VWS V14.01,2013-12-10 15:50:00,
2013-12-10 09:55:00,41.9,12.7,24.58,South,188,3.0,6.0,30,0.00,,---,0.00,VWS V14.01,2013-12-10 15:55:00,
2013-12-10 10:00:00,41.6,10.1,24.58,South,175,3.0,4.0,27,0.00,,---,0.00,VWS V14.01,2013-12-10 16:00:00,
2013-12-10 10:05:00,41.7,12.6,24.59,SSW,209,3.0,7.0,30,0.00,,---,0.00,VWS V14.01,2013-12-10 16:05:00,
2013-12-10 10:10:00,41.9,12.7,24.59,South,185,2.0,5.0,30,0.00,,---,0.00,VWS V14.01,2013-12-10 16:10:00,
2013-12-10 10:15:00,42.1,13.7,24.58,SSE,147,4.0,5.0,31,0.00,,---,0.00,VWS V14.01,2013-12-10 16:15:00,
2013-12-10 10:20:00,42.3,16.6,24.59,SSE,161,4.0,8.0,35,0.00,,---,0.00,VWS V14.01,2013-12-10 16:20:00,
2013-12-10 10:25:00,42.0,18.9,24.59,SSE,157,5.0,6.0,39,0.00,,---,0.00,VWS V14.01,2013-12-10 16:25:00,
2013-12-10 10:30:00,41.7,20.9,24.59,SSE,164,4.0,4.0,43,0.00,,---,0.00,VWS V14.01,2013-12-10 16:30:00,
2013-12-10 10:35:00,41.7,21.4,24.59,SSE,168,6.0,6.0,44,0.00,,---,0.00,VWS V14.01,2013-12-10 16:35:00,
2013-12-10 10:40:00,41.8,21.0,24.58,SSE,147,5.0,6.0,43,0.00,,---,0.00,VWS V14.01,2013-12-10 16:40:00,
2013-12-10 10:45:00,41.4,21.7,24.58,SSE,152,4.0,5.0,45,0.00,,---,0.00,VWS V14.01,2013-12-10 16:45:00,
2013-12-10 10:50:00,41.7,21.4,24.58,SSE,152,3.0,3.0,44,0.00,,---,0.00,VWS V14.01,2013-12-10 16:50:00,
2013-12-10 10:55:00,41.9,19.9,24.58,ESE,120,5.0,5.0,41,0.00,,---,0.00,VWS V14.01,2013-12-10 16:55:00,
2013-12-10 11:00:00,42.1,19.5,24.58,South,179,8.0,8.0,40,0.00,,---,0.00,VWS V14.01,2013-12-10 17:00:00,
2013-12-10 11:05:00,42.6,19.4,24.58,SE,136,5.0,6.0,39,0.00,,---,0.00,VWS V14.01,2013-12-10 17:05:00,
2013-12-10 11:10:00,42.7,18.3,24.58,SSE,153,9.0,9.0,37,0.00,,---,0.00,VWS V14.01,2013-12-10 17:10:00,
2013-12-10 11:15:00,42.8,18.4,24.58,South,175,9.0,9.0,37,0.00,,---,0.00,VWS V14.01,2013-12-10 17:15:00,
2013-12-10 11:20:00,43.2,16.1,24.58,SSE,152,5.0,8.0,33,0.00,,---,0.00,VWS V14.01,2013-12-10 17:20:00,
2013-12-10 11:25:00,43.3,16.1,24.57,SSE,156,4.0,7.0,33,0.00,,---,0.00,VWS V14.01,2013-12-10 17:25:00,
2013-12-10 11:30:00,43.3,15.4,24.57,SSE,167,8.0,12.0,32,0.00,,---,0.00,VWS V14.01,2013-12-10 17:30:00,
2013-12-10 11:35:00,43.2,16.7,24.57,SSE,148,11.0,11.0,34,0.00,,---,0.00,VWS V14.01,2013-12-10 17:35:00,
2013-12-10 11:40:00,43.3,16.8,24.57,South,177,8.0,9.0,34,0.00,,---,0.00,VWS V14.01,2013-12-10 17:40:00,
2013-12-10 11:45:00,43.7,15.1,24.57,SSE,161,9.0,11.0,31,0.00,,---,0.00,VWS V14.01,2013-12-10 17:45:00,
2013-12-10 11:50:00,43.5,15.6,24.56,SSE,162,8.0,11.0,32,0.00,,---,0.00,VWS V14.01,2013-12-10 17:50:00,
2013-12-10 11:55:00,42.9,15.1,24.56,SE,146,8.0,8.0,32,0.00,,---,0.00,VWS V14.01,2013-12-10 17:55:00,
2013-12-10 12:00:00,42.5,14.7,24.56,SSE,150,6.0,9.0,32,0.00,,---,0.00,VWS V14.01,2013-12-10 18:00:00,
2013-12-10 12:05:00,42.9,13.6,24.56,SSE,147,9.0,9.0,30,0.00,,---,0.00,VWS V14.01,2013-12-10 18:05:00,
2013-12-10 12:10:00,43.7,13.5,24.56,SE,135,4.0,7.0,29,0.00,,---,0.00,VWS V14.01,2013-12-10 18:10:00,
2013-12-10 12:15:00,44.7,15.2,24.55,South,191,10.0,10.0,30,0.00,,---,0.00,VWS V14.01,2013-12-10 18:15:00,
2013-12-10 12:20:00,44.9,13.0,24.55,South,187,6.0,11.0,27,0.00,,---,0.00,VWS V14.01,2013-12-10 18:20:00,
2013-12-10 12:25:00,44.5,11.8,24.55,SSW,199,9.0,11.0,26,0.00,,---,0.00,VWS V14.01,2013-12-10 18:25:00,
2013-12-10 12:30:00,44.4,12.5,24.55,SSE,163,6.0,11.0,27,0.00,,---,0.00,VWS V14.01,2013-12-10 18:30:00,
2013-12-10 12:35:00,44.2,13.2,24.55,SSE,159,4.0,10.0,28,0.00,,---,0.00,VWS V14.01,2013-12-10 18:35:00,
2013-12-10 12:40:00,44.1,13.9,24.54,SSE,158,5.0,6.0,29,0.00,,---,0.00,VWS V14.01,2013-12-10 18:40:00,
2013-12-10 12:45:00,44.0,13.8,24.54,South,174,7.0,12.0,29,0.00,,---,0.00,VWS V14.01,2013-12-10 18:45:00,
2013-12-10 12:50:00,44.5,11.8,24.54,South,184,9.0,10.0,26,0.00,,---,0.00,VWS V14.01,2013-12-10 18:50:00,
2013-12-10 12:55:00,44.0,13.8,24.53,SSE,150,6.0,12.0,29,0.00,,---,0.00,VWS V14.01,2013-12-10 18:55:00,
2013-12-10 13:00:00,44.1,15.4,24.53,SSE,155,10.0,10.0,31,0.00,,---,0.00,VWS V14.01,2013-12-10 19:00:00,
2013-12-10 13:05:00,44.2,16.2,24.53,SSE,166,8.0,10.0,32,0.00,,---,0.00,VWS V14.01,2013-12-10 19:05:00,
2013-12-10 13:10:00,44.0,16.8,24.52,South,170,7.0,11.0,33,0.00,,---,0.00,VWS V14.01,2013-12-10 19:10:00,
2013-12-10 13:15:00,44.3,17.7,24.52,South,184,15.0,15.0,34,0.00,,---,0.00,VWS V14.01,2013-12-10 19:15:00,
2013-12-10 13:20:00,44.7,18.8,24.51,South,187,4.0,9.0,35,0.00,,---,0.00,VWS V14.01,2013-12-10 19:20:00,
2013-12-10 13:25:00,44.8,18.8,24.51,South,169,8.0,11.0,35,0.00,,---,0.00,VWS V14.01,2013-12-10 19:25:00,
2013-12-10 13:30:00,45.3,17.2,24.51,South,180,14.0,15.0,32,0.00,,---,0.00,VWS V14.01,2013-12-10 19:30:00,
2013-12-10 13:35:00,45.1,17.7,24.51,South,171,10.0,12.0,33,0.00,,---,0.00,VWS V14.01,2013-12-10 19:35:00,
2013-12-10 13:40:00,44.7,16.7,24.51,South,185,9.0,11.0,32,0.00,,---,0.00,VWS V14.01,2013-12-10 19:40:00,
2013-12-10 13:46:00,44.7,18.1,24.50,SE,145,8.0,11.0,34,0.00,,---,0.00,VWS V14.01,2013-12-10 19:46:00,
2013-12-10 13:51:00,45.0,17.6,24.50,South,190,14.0,14.0,33,0.00,,---,0.00,VWS V14.01,2013-12-10 19:51:00,
2013-12-10 13:56:00,45.3,17.2,24.50,SSE,155,6.0,9.0,32,0.00,,---,0.00,VWS V14.01,2013-12-10 19:56:00,
2013-12-10 14:01:00,45.5,16.6,24.49,SE,145,7.0,8.0,31,0.00,,---,0.00,VWS V14.01,2013-12-10 20:01:00,
2013-12-10 14:06:00,45.4,18.0,24.49,South,190,11.0,13.0,33,0.00,,---,0.00,VWS V14.01,2013-12-10 20:06:00,
2013-12-10 14:11:00,45.3,17.9,24.49,SSE,154,12.0,15.0,33,0.00,,---,0.00,VWS V14.01,2013-12-10 20:11:00,
2013-12-10 14:16:00,45.8,16.9,24.49,SSE,148,8.0,11.0,31,0.00,,---,0.00,VWS V14.01,2013-12-10 20:16:00,
2013-12-10 14:21:00,46.4,16.7,24.49,SSW,201,4.0,11.0,30,0.00,,---,0.00,VWS V14.01,2013-12-10 20:21:00,
2013-12-10 14:26:00,47.6,17.7,24.49,SSW,202,11.0,11.0,30,0.00,,---,0.00,VWS V14.01,2013-12-10 20:26:00,
2013-12-10 14:31:00,47.4,16.8,24.48,South,183,3.0,8.0,29,0.00,,---,0.00,VWS V14.01,2013-12-10 20:31:00,
2013-12-10 14:36:00,47.9,17.2,24.48,South,187,7.0,11.0,29,0.00,,---,0.00,VWS V14.01,2013-12-10 20:36:00,
2013-12-10 14:41:00,48.1,17.4,24.48,SSE,158,7.0,12.0,29,0.00,,---,0.00,VWS V14.01,2013-12-10 20:41:00,
2013-12-10 14:46:00,47.2,17.4,24.48,South,186,2.0,7.0,30,0.00,,---,0.00,VWS V14.01,2013-12-10 20:46:00,
2013-12-10 14:51:00,47.0,17.2,24.48,ESE,114,9.0,10.0,30,0.00,,---,0.00,VWS V14.01,2013-12-10 20:51:00,
2013-12-10 14:56:00,46.8,16.2,24.48,SSE,165,13.0,15.0,29,0.00,,---,0.00,VWS V14.01,2013-12-10 20:56:00,
2013-12-10 15:01:00,46.3,15.8,24.47,South,186,4.0,7.0,29,0.00,,---,0.00,VWS V14.01,2013-12-10 21:01:00,
2013-12-10 15:06:00,46.6,17.6,24.47,SSE,158,9.0,10.0,31,0.00,,---,0.00,VWS V14.01,2013-12-10 21:06:00,
2013-12-10 15:11:00,47.0,15.6,24.47,South,187,13.0,15.0,28,0.00,,---,0.00,VWS V14.01,2013-12-10 21:11:00,
2013-12-10 15:16:00,46.9,14.7,24.47,SE,136,8.0,11.0,27,0.00,,---,0.00,VWS V14.01,2013-12-10 21:16:00,
2013-12-10 15:21:00,46.7,14.5,24.47,SE,136,12.0,12.0,27,0.00,,---,0.00,VWS V14.01,2013-12-10 21:21:00,
2013-12-10 15:26:00,46.7,14.5,24.47,South,180,9.0,13.0,27,0.00,,---,0.00,VWS V14.01,2013-12-10 21:26:00,
2013-12-10 15:31:00,46.9,14.7,24.47,SSE,164,6.0,12.0,27,0.00,,---,0.00,VWS V14.01,2013-12-10 21:31:00,
2013-12-10 15:36:00,47.3,13.3,24.47,SE,140,10.0,12.0,25,0.00,,---,0.00,VWS V14.01,2013-12-10 21:36:00,
2013-12-10 15:41:00,46.5,12.6,24.47,SE,128,9.0,11.0,25,0.00,,---,0.00,VWS V14.01,2013-12-10 21:41:00,
2013-12-10 15:46:00,46.6,13.6,24.46,SE,142,7.0,12.0,26,0.00,,---,0.00,VWS V14.01,2013-12-10 21:46:00,
2013-12-10 15:51:00,46.8,14.6,24.47,South,187,4.0,14.0,27,0.00,,---,0.00,VWS V14.01,2013-12-10 21:51:00,
2013-12-10 15:56:00,46.7,13.6,24.46,SSE,161,10.0,15.0,26,0.00,,---,0.00,VWS V14.01,2013-12-10 21:56:00,
2013-12-10 16:01:00,46.5,14.3,24.47,South,174,8.0,10.0,27,0.00,,---,0.00,VWS V14.01,2013-12-10 22:01:00,
2013-12-10 16:06:00,46.9,12.9,24.47,SSE,150,12.0,12.0,25,0.00,,---,0.00,VWS V14.01,2013-12-10 22:06:00,
2013-12-10 16:11:00,45.8,12.9,24.47,SSE,166,12.0,12.0,26,0.00,,---,0.00,VWS V14.01,2013-12-10 22:11:00,
2013-12-10 16:16:00,45.5,13.5,24.46,SSE,159,7.0,11.0,27,0.00,,---,0.00,VWS V14.01,2013-12-10 22:16:00,
2013-12-10 16:21:00,45.9,13.0,24.46,SSE,167,3.0,7.0,26,0.00,,---,0.00,VWS V14.01,2013-12-10 22:21:00,
2013-12-10 16:26:00,46.7,13.6,24.46,South,186,7.0,12.0,26,0.00,,---,0.00,VWS V14.01,2013-12-10 22:26:00,
2013-12-10 16:31:00,46.9,12.9,24.46,SSE,165,9.0,11.0,25,0.00,,---,0.00,VWS V14.01,2013-12-10 22:31:00,
2013-12-10 16:36:00,46.8,12.9,24.46,South,181,11.0,12.0,25,0.00,,---,0.00,VWS V14.01,2013-12-10 22:36:00,
2013-12-10 16:41:00,46.9,12.9,24.46,South,189,8.0,11.0,25,0.00,,---,0.00,VWS V14.01,2013-12-10 22:41:00,
2013-12-10 16:46:00,46.9,12.9,24.46,SSE,163,9.0,10.0,25,0.00,,---,0.00,VWS V14.01,2013-12-10 22:46:00,
2013-12-10 16:51:00,46.9,12.9,24.46,South,179,12.0,13.0,25,0.00,,---,0.00,VWS V14.01,2013-12-10 22:51:00,
2013-12-10 16:56:00,46.6,13.6,24.46,South,189,8.0,12.0,26,0.00,,---,0.00,VWS V14.01,2013-12-10 22:56:00,
2013-12-10 17:01:00,45.8,12.9,24.46,South,183,9.0,10.0,26,0.00,,---,0.00,VWS V14.01,2013-12-10 23:01:00,
2013-12-10 17:06:00,45.2,13.2,24.46,South,174,6.0,12.0,27,0.00,,---,0.00,VWS V14.01,2013-12-10 23:06:00,
2013-12-10 17:11:00,45.0,13.1,24.46,SSE,159,2.0,9.0,27,0.00,,---,0.00,VWS V14.01,2013-12-10 23:11:00,
2013-12-10 17:16:00,44.9,13.8,24.46,South,180,8.0,8.0,28,0.00,,---,0.00,VWS V14.01,2013-12-10 23:16:00,
2013-12-10 17:21:00,44.6,14.3,24.46,South,174,8.0,9.0,29,0.00,,---,0.00,VWS V14.01,2013-12-10 23:21:00,
2013-12-10 17:26:00,44.4,14.1,24.46,SSE,168,6.0,6.0,29,0.00,,---,0.00,VWS V14.01,2013-12-10 23:26:00,
2013-12-10 17:31:00,44.6,14.3,24.46,South,185,4.0,4.0,29,0.00,,---,0.00,VWS V14.01,2013-12-10 23:31:00,
2013-12-10 17:36:00,44.5,15.0,24.46,SSE,167,4.0,4.0,30,0.00,,---,0.00,VWS V14.01,2013-12-10 23:36:00,
2013-12-10 17:41:00,44.2,15.5,24.46,SSE,159,5.0,5.0,31,0.00,,---,0.00,VWS V14.01,2013-12-10 23:41:00,
2013-12-10 17:46:00,44.0,17.5,24.46,South,169,7.0,7.0,34,0.00,,---,0.00,VWS V14.01,2013-12-10 23:46:00,
2013-12-10 17:51:00,43.5,18.3,24.46,South,180,6.0,6.0,36,0.00,,---,0.00,VWS V14.01,2013-12-10 23:51:00,
2013-12-10 17:56:00,43.0,19.8,24.46,SSE,168,9.0,9.0,39,0.00,,---,0.00,VWS V14.01,2013-12-10 23:56:00,
2013-12-10 18:01:00,42.6,20.6,24.46,SSE,164,6.0,8.0,41,0.00,,---,0.00,VWS V14.01,2013-12-11 00:01:00,
2013-12-10 18:06:00,42.3,20.9,24.46,SSE,168,7.0,8.0,42,0.00,,---,0.00,VWS V14.01,2013-12-11 00:06:00,
2013-12-10 18:11:00,42.0,21.1,24.46,South,176,4.0,9.0,43,0.00,,---,0.00,VWS V14.01,2013-12-11 00:11:00,
2013-12-10 18:16:00,41.8,21.5,24.46,South,181,5.0,5.0,44,0.00,,---,0.00,VWS V14.01,2013-12-11 00:16:00,
2013-12-10 18:21:00,41.4,21.7,24.45,South,173,6.0,9.0,45,0.00,,---,0.00,VWS V14.01,2013-12-11 00:21:00,
2013-12-10 18:26:00,41.2,21.5,24.45,South,183,5.0,6.0,45,0.00,,---,0.00,VWS V14.01,2013-12-11 00:26:00,
2013-12-10 18:31:00,40.9,21.2,24.46,SSW,196,4.0,6.0,45,0.00,,---,0.00,VWS V14.01,2013-12-11 00:31:00,
2013-12-10 18:36:00,40.7,21.5,24.46,SW,216,1.0,3.0,46,0.00,,---,0.00,VWS V14.01,2013-12-11 00:36:00,
2013-12-10 18:41:00,40.6,22.0,24.46,SSW,203,4.0,5.0,47,0.00,,---,0.00,VWS V14.01,2013-12-11 00:41:00,
2013-12-10 18:46:00,40.6,22.5,24.46,SSW,197,7.0,7.0,48,0.00,,---,0.00,VWS V14.01,2013-12-11 00:46:00,
2013-12-10 18:51:00,40.6,23.0,24.46,SSW,213,7.0,7.0,49,0.00,,---,0.00,VWS V14.01,2013-12-11 00:51:00,
2013-12-10 18:56:00,40.5,22.9,24.47,SSW,201,10.0,10.0,49,0.00,,---,0.00,VWS V14.01,2013-12-11 00:56:00,
2013-12-10 19:01:00,40.4,22.8,24.47,SSW,197,8.0,8.0,49,0.00,,---,0.00,VWS V14.01,2013-12-11 01:01:00,
2013-12-10 19:06:00,40.4,22.8,24.47,SSW,196,11.0,12.0,49,0.00,,---,0.00,VWS V14.01,2013-12-11 01:06:00,
2013-12-10 19:11:00,40.3,22.7,24.47,SSW,194,8.0,11.0,49,0.00,,---,0.00,VWS V14.01,2013-12-11 01:11:00,
2013-12-10 19:16:00,40.2,22.6,24.47,SSW,200,10.0,10.0,49,0.00,,---,0.00,VWS V14.01,2013-12-11 01:16:00,
2013-12-10 19:22:00,40.2,22.6,24.47,SSW,194,10.0,11.0,49,0.00,,---,0.00,VWS V14.01,2013-12-11 01:22:00,
2013-12-10 19:27:00,40.1,23.0,24.47,SSW,199,8.0,10.0,50,0.00,,---,0.00,VWS V14.01,2013-12-11 01:27:00,
2013-12-10 19:32:00,40.0,22.9,24.47,SSW,195,9.0,11.0,50,0.00,,---,0.00,VWS V14.01,2013-12-11 01:32:00,
2013-12-10 19:37:00,39.9,22.8,24.47,South,191,7.0,12.0,50,0.00,,---,0.00,VWS V14.01,2013-12-11 01:37:00,
2013-12-10 19:42:00,39.8,23.2,24.47,SSW,202,8.0,12.0,51,0.00,,---,0.00,VWS V14.01,2013-12-11 01:42:00,
2013-12-10 19:47:00,39.8,23.6,24.47,SSW,213,11.0,11.0,52,0.00,,---,0.00,VWS V14.01,2013-12-11 01:47:00,
2013-12-10 19:52:00,39.9,23.3,24.48,SSW,211,9.0,12.0,51,0.00,,---,0.00,VWS V14.01,2013-12-11 01:52:00,
2013-12-10 19:57:00,39.8,23.2,24.47,SSW,199,10.0,11.0,51,0.00,,---,0.00,VWS V14.01,2013-12-11 01:57:00,
2013-12-10 20:02:00,39.7,23.1,24.48,SSW,205,7.0,10.0,51,0.00,,---,0.00,VWS V14.01,2013-12-11 02:02:00,
2013-12-10 20:07:00,39.5,23.4,24.48,SSW,203,7.0,11.0,52,0.00,,---,0.00,VWS V14.01,2013-12-11 02:07:00,
2013-12-10 20:12:00,39.4,23.7,24.48,SSW,204,6.0,10.0,53,0.00,,---,0.00,VWS V14.01,2013-12-11 02:12:00,
2013-12-10 20:17:00,39.3,23.6,24.49,South,189,9.0,11.0,53,0.00,,---,0.00,VWS V14.01,2013-12-11 02:17:00,
2013-12-10 20:22:00,39.2,23.5,24.49,SSW,205,8.0,10.0,53,0.00,,---,0.00,VWS V14.01,2013-12-11 02:22:00,
2013-12-10 20:27:00,39.2,23.5,24.49,SSW,207,11.0,11.0,53,0.00,,---,0.00,VWS V14.01,2013-12-11 02:27:00,
2013-12-10 20:32:00,38.9,23.7,24.49,SSW,202,9.0,10.0,54,0.00,,---,0.00,VWS V14.01,2013-12-11 02:32:00,
2013-12-10 20:37:00,38.6,23.4,24.49,SSW,192,8.0,12.0,54,0.00,,---,0.00,VWS V14.01,2013-12-11 02:37:00,
2013-12-10 20:42:00,38.4,23.7,24.49,SSW,206,8.0,10.0,55,0.00,,---,0.00,VWS V14.01,2013-12-11 02:42:00,
2013-12-10 20:47:00,38.2,23.9,24.49,SSW,198,10.0,10.0,56,0.00,,---,0.00,VWS V14.01,2013-12-11 02:47:00,
2013-12-10 20:52:00,38.1,23.8,24.49,South,190,10.0,14.0,56,0.00,,---,0.00,VWS V14.01,2013-12-11 02:52:00,
2013-12-10 20:57:00,38.1,24.2,24.50,SSW,210,11.0,11.0,57,0.00,,---,0.00,VWS V14.01,2013-12-11 02:57:00,
2013-12-10 21:02:00,38.1,24.2,24.50,SSW,213,9.0,11.0,57,0.00,,---,0.00,VWS V14.01,2013-12-11 03:02:00,
2013-12-10 21:07:00,38.0,24.1,24.50,SSW,206,11.0,14.0,57,0.00,,---,0.00,VWS V14.01,2013-12-11 03:07:00,
2013-12-10 21:12:00,38.0,24.1,24.50,SSW,209,9.0,9.0,57,0.00,,---,0.00,VWS V14.01,2013-12-11 03:12:00,
2013-12-10 21:17:00,38.0,24.5,24.50,SSW,212,10.0,10.0,58,0.00,,---,0.00,VWS V14.01,2013-12-11 03:17:00,
2013-12-10 21:22:00,38.0,24.5,24.50,SSW,200,10.0,12.0,58,0.00,,---,0.00,VWS V14.01,2013-12-11 03:22:00,
2013-12-10 21:27:00,38.2,24.7,24.50,SSW,212,12.0,12.0,58,0.00,,---,0.00,VWS V14.01,2013-12-11 03:27:00,
2013-12-10 21:32:00,38.8,24.9,24.50,SW,214,9.0,9.0,57,0.00,,---,0.00,VWS V14.01,2013-12-11 03:32:00,
2013-12-10 21:37:00,39.2,24.8,24.50,SSW,212,7.0,10.0,56,0.00,,---,0.00,VWS V14.01,2013-12-11 03:37:00,
2013-12-10 21:42:00,39.3,24.5,24.50,SW,216,7.0,8.0,55,0.00,,---,0.00,VWS V14.01,2013-12-11 03:42:00,
2013-12-10 21:47:00,39.9,24.2,24.50,SW,228,12.0,12.0,53,0.00,,---,0.00,VWS V14.01,2013-12-11 03:47:00,
2013-12-10 21:52:00,41.1,24.4,24.50,SW,216,6.0,7.0,51,0.00,,---,0.00,VWS V14.01,2013-12-11 03:52:00,
2013-12-10 21:57:00,41.4,24.6,24.50,SW,218,13.0,13.0,51,0.00,,---,0.00,VWS V14.01,2013-12-11 03:57:00,
2013-12-10 22:02:00,41.8,24.5,24.50,SW,228,11.0,15.0,50,0.00,,---,0.00,VWS V14.01,2013-12-11 04:02:00,
2013-12-10 22:07:00,42.1,24.3,24.50,SSW,204,9.0,10.0,49,0.00,,---,0.00,VWS V14.01,2013-12-11 04:07:00,
2013-12-10 22:12:00,41.9,24.1,24.50,SW,217,9.0,9.0,49,0.00,,---,0.00,VWS V14.01,2013-12-11 04:12:00,
2013-12-10 22:17:00,41.9,24.1,24.50,SSW,213,7.0,9.0,49,0.00,,---,0.00,VWS V14.01,2013-12-11 04:17:00,
2013-12-10 22:22:00,42.1,24.3,24.50,SW,219,9.0,12.0,49,0.00,,---,0.00,VWS V14.01,2013-12-11 04:22:00,
2013-12-10 22:27:00,42.5,24.2,24.50,SW,230,11.0,14.0,48,0.00,,---,0.00,VWS V14.01,2013-12-11 04:27:00,
2013-12-10 22:33:00,43.1,24.3,24.50,SW,216,6.0,14.0,47,0.00,,---,0.00,VWS V14.01,2013-12-11 04:33:00,
2013-12-10 22:38:00,43.4,24.0,24.50,SW,223,11.0,11.0,46,0.00,,---,0.00,VWS V14.01,2013-12-11 04:38:00,
2013-12-10 22:43:00,43.2,24.4,24.50,SSW,194,4.0,6.0,47,0.00,,---,0.00,VWS V14.01,2013-12-11 04:43:00,
2013-12-10 22:48:00,42.7,24.9,24.50,SW,223,6.0,11.0,49,0.00,,---,0.00,VWS V14.01,2013-12-11 04:48:00,
2013-12-10 22:53:00,43.4,25.5,24.50,SW,223,8.0,8.0,49,0.00,,---,0.00,VWS V14.01,2013-12-11 04:53:00,
2013-12-10 22:58:00,43.9,25.5,24.50,SW,223,7.0,9.0,48,0.00,,---,0.00,VWS V14.01,2013-12-11 04:58:00,
2013-12-10 23:01:00,44.1,25.7,24.50,SW,230,9.0,10.0,48,0.00,,---,0.00,VWS V14.01,2013-12-11 05:01:00,
2013-12-10 23:02:00,44.2,26.3,24.50,SSW,209,6.0,10.0,49,0.00,,---,0.00,VWS V14.01,2013-12-11 05:02:00,
2013-12-10 23:07:00,44.2,25.8,24.50,WSW,237,11.0,11.0,48,0.00,,---,0.00,VWS V14.01,2013-12-11 05:07:00,
2013-12-10 23:12:00,44.4,26.0,24.50,SW,218,5.0,8.0,48,0.00,,---,0.00,VWS V14.01,2013-12-11 05:12:00,
2013-12-10 23:17:00,44.3,26.4,24.50,SW,229,8.0,10.0,49,0.00,,---,0.00,VWS V14.01,2013-12-11 05:17:00,
2013-12-10 23:22:00,44.5,26.0,24.50,SW,214,9.0,10.0,48,0.00,,---,0.00,VWS V14.01,2013-12-11 05:22:00,
2013-12-10 23:27:00,44.4,26.5,24.50,SW,216,8.0,9.0,49,0.00,,---,0.00,VWS V14.01,2013-12-11 05:27:00,
2013-12-10 23:32:00,44.5,26.5,24.50,WSW,246,11.0,13.0,49,0.00,,---,0.00,VWS V14.01,2013-12-11 05:32:00,
2013-12-10 23:37:00,44.8,26.8,24.50,WSW,248,12.0,12.0,49,0.00,,---,0.00,VWS V14.01,2013-12-11 05:37:00,
2013-12-10 23:42:00,45.0,27.0,24.50,SW,218,8.0,11.0,49,0.00,,---,0.00,VWS V14.01,2013-12-11 05:42:00,
2013-12-10 23:47:00,45.1,27.1,24.50,SSW,194,6.0,9.0,49,0.00,,---,0.00,VWS V14.01,2013-12-11 05:47:00,
2013-12-10 23:52:00,45.2,27.2,24.50,SW,216,7.0,13.0,49,0.00,,---,0.00,VWS V14.01,2013-12-11 05:52:00,
2013-12-10 23:57:00,45.2,27.2,24.50,SW,230,11.0,14.0,49,0.00,,---,0.00,VWS V14.01,2013-12-11 05:57:00,